| time (UTC) | temp F | wind direction | speed MPH | gust MPH | rain 1hr in | rain 24hr in | rain mn in | humidity % | barometer mb |
| 20260507181903 | 50 | 208 | 6.0 | 10.0 | 0.01 | 0.01 | 0.01 | 86 | 1009.1 |
| 20260507181404 | 50 | 217 | 5.0 | 10.0 | 0.01 | 0.01 | 0.01 | 85 | 1009.1 |
| 20260507180903 | 51 | 211 | 1.0 | 10.0 | 0.00 | 0.00 | 0.00 | 84 | 1009.0 |
| 20260507175403 | 52 | 209 | 1.0 | 6.0 | 0.00 | 0.00 | 0.00 | 81 | 1008.8 |
| 20260507174904 | 53 | 209 | 0.0 | 3.0 | 0.00 | 0.00 | 0.00 | 78 | 1008.8 |
| 20260507174405 | 53 | 209 | 2.0 | 7.0 | 0.00 | 0.00 | 0.00 | 76 | 1008.8 |
| 20260507173904 | 53 | 209 | 5.0 | 7.0 | 0.00 | 0.00 | 0.00 | 75 | 1008.6 |
| 20260507173403 | 53 | 208 | 4.0 | 7.0 | 0.00 | 0.00 | 0.00 | 75 | 1008.7 |
| 20260507172903 | 53 | 208 | 5.0 | 7.0 | 0.00 | 0.00 | 0.00 | 74 | 1008.7 |
| 20260507172404 | 54 | 208 | 3.0 | 7.0 | 0.00 | 0.00 | 0.00 | 73 | 1008.7 |
| 20260507171904 | 54 | 208 | 4.0 | 7.0 | 0.00 | 0.00 | 0.00 | 72 | 1008.8 |
| 20260507171403 | 54 | 209 | 2.0 | 7.0 | 0.00 | 0.00 | 0.00 | 72 | 1008.7 |
| 20260507170904 | 54 | 209 | 2.0 | 7.0 | 0.00 | 0.00 | 0.00 | 71 | 1008.8 |
| 20260507170403 | 54 | 208 | 5.0 | 12.0 | 0.00 | 0.00 | 0.00 | 71 | 1008.7 |
| 20260507165903 | 54 | 211 | 5.0 | 12.0 | 0.00 | 0.00 | 0.00 | 74 | 1008.8 |
| 20260507165403 | 54 | 208 | 3.0 | 9.0 | 0.00 | 0.00 | 0.00 | 71 | 1008.8 |
| 20260507164903 | 55 | 221 | 4.0 | 10.0 | 0.00 | 0.00 | 0.00 | 71 | 1008.7 |
| 20260507164403 | 55 | 215 | 4.0 | 10.0 | 0.00 | 0.00 | 0.00 | 71 | 1008.7 |
| 20260507163905 | 55 | 245 | 4.0 | 10.0 | 0.00 | 0.00 | 0.00 | 71 | 1008.7 |
| 20260507163404 | 55 | 211 | 4.0 | 7.0 | 0.00 | 0.00 | 0.00 | 70 | 1008.7 |
| 20260507162904 | 55 | 213 | 4.0 | 12.0 | 0.00 | 0.00 | 0.00 | 69 | 1008.7 |
| 20260507161404 | 56 | 201 | 4.0 | 7.0 | 0.00 | 0.00 | 0.00 | 68 | 1008.7 |
| 20260507160904 | 56 | 207 | 3.0 | 8.0 | 0.00 | 0.00 | 0.00 | 67 | 1008.7 |
| 20260507160404 | 56 | 208 | 2.0 | 7.0 | 0.00 | 0.00 | 0.00 | 68 | 1008.6 |
| 20260507155904 | 56 | 207 | 5.0 | 7.0 | 0.00 | 0.00 | 0.00 | 68 | 1008.6 |
| 20260507155405 | 55 | 208 | 4.0 | 8.0 | 0.00 | 0.00 | 0.00 | 70 | 1008.6 |
| 20260507154903 | 55 | 207 | 4.0 | 8.0 | 0.00 | 0.00 | 0.00 | 69 | 1008.7 |
| 20260507154404 | 55 | 206 | 4.0 | 12.0 | 0.00 | 0.00 | 0.00 | 69 | 1008.6 |
| 20260507153904 | 55 | 210 | 3.0 | 8.0 | 0.00 | 0.00 | 0.00 | 70 | 1008.7 |
| 20260507153404 | 55 | 211 | 2.0 | 7.0 | 0.00 | 0.00 | 0.00 | 71 | 1008.7 |
| 20260507152904 | 55 | 211 | 4.0 | 8.0 | 0.00 | 0.00 | 0.00 | 69 | 1008.8 |
| 20260507152406 | 55 | 211 | 3.0 | 7.0 | 0.00 | 0.00 | 0.00 | 69 | 1008.8 |
| 20260507151904 | 54 | 211 | 2.0 | 7.0 | 0.00 | 0.00 | 0.00 | 71 | 1008.8 |
| 20260507150905 | 54 | 211 | 4.0 | 7.0 | 0.00 | 0.00 | 0.00 | 72 | 1009.0 |
| 20260507150404 | 54 | 210 | 4.0 | 7.0 | 0.00 | 0.00 | 0.00 | 72 | 1008.9 |
| 20260507145904 | 54 | 211 | 3.0 | 8.0 | 0.00 | 0.00 | 0.00 | 70 | 1008.9 |
| 20260507145404 | 54 | 211 | 5.0 | 8.0 | 0.00 | 0.00 | 0.00 | 70 | 1009.0 |
| 20260507144905 | 54 | 205 | 5.0 | 8.0 | 0.00 | 0.00 | 0.00 | 70 | 1009.0 |
| 20260507144405 | 54 | 205 | 4.0 | 8.0 | 0.00 | 0.00 | 0.00 | 69 | 1009.1 |
| 20260507143404 | 54 | 198 | 4.0 | 7.0 | 0.00 | 0.00 | 0.00 | 69 | 1009.1 |
| 20260507142904 | 55 | 198 | 4.0 | 9.0 | 0.00 | 0.00 | 0.00 | 69 | 1009.2 |
| 20260507141904 | 55 | 202 | 6.0 | 8.0 | 0.00 | 0.00 | 0.00 | 69 | 1009.3 |
| 20260507141404 | 55 | 202 | 4.0 | 8.0 | 0.00 | 0.00 | 0.00 | 70 | 1009.2 |
| 20260507140904 | 55 | 205 | 5.0 | 8.0 | 0.00 | 0.00 | 0.00 | 69 | 1009.4 |
| 20260507135904 | 55 | 209 | 5.0 | 8.0 | 0.00 | 0.00 | 0.00 | 67 | 1009.4 |
| 20260507135404 | 55 | 205 | 6.0 | 9.0 | 0.00 | 0.00 | 0.00 | 67 | 1009.4 |
| 20260507134905 | 55 | 209 | 5.0 | 7.0 | 0.00 | 0.00 | 0.00 | 68 | 1009.4 |
| 20260507134404 | 55 | 210 | 5.0 | 10.0 | 0.00 | 0.00 | 0.00 | 67 | 1009.4 |
| 20260507133905 | 55 | 204 | 5.0 | 8.0 | 0.00 | 0.00 | 0.00 | 67 | 1009.4 |
| 20260507133404 | 55 | 211 | 5.0 | 12.0 | 0.00 | 0.00 | 0.00 | 66 | 1009.4 |
| 20260507132906 | 55 | 208 | 5.0 | 8.0 | 0.00 | 0.00 | 0.00 | 67 | 1009.5 |
| 20260507132404 | 55 | 205 | 5.0 | 10.0 | 0.00 | 0.00 | 0.00 | 66 | 1009.5 |
| 20260507131906 | 55 | 208 | 5.0 | 9.0 | 0.00 | 0.00 | 0.00 | 65 | 1009.6 |
| 20260507131405 | 55 | 205 | 6.0 | 12.0 | 0.00 | 0.00 | 0.00 | 64 | 1009.5 |
| 20260507130904 | 55 | 213 | 6.0 | 12.0 | 0.00 | 0.00 | 0.00 | 63 | 1009.4 |
| 20260507130405 | 56 | 207 | 5.0 | 10.0 | 0.00 | 0.00 | 0.00 | 63 | 1009.5 |
| 20260507125904 | 56 | 214 | 6.0 | 10.0 | 0.00 | 0.00 | 0.00 | 63 | 1009.5 |
| 20260507125404 | 57 | 206 | 6.0 | 10.0 | 0.00 | 0.00 | 0.00 | 63 | 1009.5 |
| 20260507124904 | 57 | 210 | 6.0 | 12.0 | 0.00 | 0.00 | 0.00 | 64 | 1009.5 |
| 20260507124405 | 57 | 215 | 8.0 | 15.0 | 0.00 | 0.00 | 0.00 | 63 | 1009.5 |
| 20260507123903 | 57 | 213 | 7.0 | 15.0 | 0.00 | 0.00 | 0.00 | 62 | 1009.5 |
| 20260507123404 | 57 | 212 | 7.0 | 12.0 | 0.00 | 0.00 | 0.00 | 64 | 1009.5 |
| 20260507122904 | 56 | 214 | 6.0 | 15.0 | 0.00 | 0.00 | 0.00 | 64 | 1009.5 |
| 20260507122405 | 56 | 214 | 6.0 | 15.0 | 0.00 | 0.00 | 0.00 | 64 | 1009.5 |
| 20260507121904 | 57 | 211 | 6.0 | 12.0 | 0.00 | 0.00 | 0.00 | 64 | 1009.6 |
| 20260507121403 | 57 | 208 | 7.0 | 14.0 | 0.00 | 0.00 | 0.00 | 64 | 1009.6 |
| 20260507120904 | 56 | 215 | 6.0 | 13.0 | 0.00 | 0.00 | 0.00 | 65 | 1009.6 |
| 20260507120403 | 56 | 210 | 5.0 | 10.0 | 0.00 | 0.00 | 0.00 | 66 | 1009.6 |
| 20260507115904 | 55 | 209 | 6.0 | 12.0 | 0.00 | 0.00 | 0.00 | 68 | 1009.6 |
| 20260507114904 | 53 | 214 | 5.0 | 10.0 | 0.00 | 0.00 | 0.00 | 72 | 1009.6 |
| 20260507114403 | 52 | 211 | 6.0 | 12.0 | 0.00 | 0.00 | 0.00 | 72 | 1009.6 |
| 20260507113905 | 52 | 214 | 6.0 | 10.0 | 0.00 | 0.00 | 0.00 | 73 | 1009.6 |
| 20260507113403 | 53 | 209 | 5.0 | 9.0 | 0.00 | 0.00 | 0.00 | 75 | 1009.6 |
| 20260507112905 | 53 | 208 | 5.0 | 8.0 | 0.00 | 0.00 | 0.00 | 76 | 1009.6 |
| 20260507112404 | 52 | 207 | 3.0 | 9.0 | 0.00 | 0.00 | 0.00 | 77 | 1009.5 |
| 20260507111905 | 53 | 211 | 3.0 | 7.0 | 0.00 | 0.00 | 0.00 | 80 | 1009.4 |
| 20260507111403 | 52 | 210 | 2.0 | 8.0 | 0.00 | 0.00 | 0.00 | 81 | 1009.5 |
| 20260507110903 | 52 | 211 | 4.0 | 7.0 | 0.00 | 0.00 | 0.00 | 79 | 1009.4 |
| 20260507105904 | 52 | 211 | 1.0 | 3.0 | 0.00 | 0.00 | 0.00 | 80 | 1009.3 |
| 20260507105404 | 52 | 211 | 1.0 | 3.0 | 0.00 | 0.00 | 0.00 | 79 | 1009.4 |
| 20260507104903 | 52 | 211 | 1.0 | 6.0 | 0.00 | 0.00 | 0.00 | 79 | 1009.5 |
| 20260507104403 | 52 | 211 | 3.0 | 5.0 | 0.00 | 0.00 | 0.00 | 77 | 1009.7 |
| 20260507103903 | 52 | 211 | 1.0 | 6.0 | 0.00 | 0.00 | 0.00 | 77 | 1009.4 |
| 20260507102904 | 52 | 207 | 2.0 | 6.0 | 0.00 | 0.00 | 0.00 | 77 | 1009.6 |
| 20260507102403 | 52 | 207 | 2.0 | 6.0 | 0.00 | 0.00 | 0.00 | 77 | 1009.7 |
| 20260507101403 | 52 | 209 | 3.0 | 12.0 | 0.00 | 0.00 | 0.00 | 75 | 1009.6 |
| 20260507100904 | 52 | 204 | 2.0 | 10.0 | 0.00 | 0.00 | 0.00 | 76 | 1009.5 |
| 20260507100404 | 53 | 206 | 2.0 | 7.0 | 0.00 | 0.00 | 0.00 | 76 | 1009.4 |
| 20260507095904 | 53 | 206 | 3.0 | 10.0 | 0.00 | 0.00 | 0.00 | 77 | 1009.4 |
| 20260507095404 | 52 | 198 | 2.0 | 8.0 | 0.00 | 0.00 | 0.00 | 77 | 1009.4 |
| 20260507094904 | 52 | 202 | 4.0 | 13.0 | 0.00 | 0.00 | 0.00 | 78 | 1009.5 |
| 20260507094404 | 51 | 211 | 1.0 | 10.0 | 0.00 | 0.00 | 0.00 | 78 | 1009.5 |
| 20260507093903 | 51 | 211 | 2.0 | 7.0 | 0.00 | 0.00 | 0.00 | 77 | 1009.5 |
| 20260507093404 | 51 | 210 | 5.0 | 12.0 | 0.00 | 0.00 | 0.00 | 76 | 1009.6 |
| 20260507092903 | 51 | 200 | 4.0 | 13.0 | 0.00 | 0.00 | 0.00 | 76 | 1009.6 |
| 20260507092405 | 51 | 207 | 4.0 | 12.0 | 0.00 | 0.00 | 0.00 | 77 | 1009.7 |
| 20260507091904 | 51 | 221 | 4.0 | 10.0 | 0.00 | 0.00 | 0.00 | 77 | 1009.6 |
| 20260507091403 | 51 | 211 | 1.0 | 7.0 | 0.00 | 0.00 | 0.00 | 77 | 1009.6 |
| 20260507085904 | 52 | 213 | 5.0 | 10.0 | 0.00 | 0.00 | 0.00 | 73 | 1009.6 |
| 20260507085403 | 52 | 213 | 8.0 | 15.0 | 0.00 | 0.00 | 0.00 | 72 | 1009.6 |
| 20260507084403 | 52 | 211 | 3.0 | 12.0 | 0.00 | 0.00 | 0.00 | 74 | 1009.8 |
| 20260507083904 | 52 | 211 | 3.0 | 8.0 | 0.00 | 0.00 | 0.00 | 75 | 1009.7 |
| 20260507083403 | 52 | 209 | 5.0 | 8.0 | 0.00 | 0.00 | 0.00 | 74 | 1009.7 |
| 20260507082903 | 51 | 206 | 3.0 | 8.0 | 0.00 | 0.00 | 0.00 | 74 | 1009.8 |
| 20260507082405 | 51 | 211 | 7.0 | 12.0 | 0.00 | 0.00 | 0.00 | 74 | 1009.9 |
| 20260507081905 | 51 | 205 | 2.0 | 12.0 | 0.00 | 0.00 | 0.00 | 74 | 1009.8 |
| 20260507081404 | 51 | 208 | 4.0 | 7.0 | 0.00 | 0.00 | 0.00 | 75 | 1009.8 |
| 20260507080904 | 51 | 208 | 5.0 | 9.0 | 0.00 | 0.00 | 0.00 | 74 | 1009.8 |
| 20260507080404 | 51 | 209 | 2.0 | 8.0 | 0.00 | 0.00 | 0.00 | 75 | 1009.8 |
| 20260507075403 | 51 | 207 | 3.0 | 12.0 | 0.00 | 0.00 | 0.00 | 75 | 1009.8 |
| 20260507074903 | 51 | 213 | 3.0 | 12.0 | 0.00 | 0.00 | 0.00 | 74 | 1009.9 |
| 20260507074405 | 51 | 215 | 2.0 | 7.0 | 0.00 | 0.00 | 0.00 | 75 | 1009.8 |
| 20260507073903 | 51 | 215 | 5.0 | 16.0 | 0.00 | 0.00 | 0.00 | 74 | 1009.8 |
| 20260507073405 | 51 | 212 | 5.0 | 12.0 | 0.00 | 0.00 | 0.00 | 75 | 1009.8 |
| 20260507072904 | 51 | 215 | 7.0 | 13.0 | 0.00 | 0.00 | 0.00 | 75 | 1009.8 |
| 20260507072403 | 51 | 204 | 6.0 | 12.0 | 0.00 | 0.00 | 0.00 | 75 | 1009.8 |
| 20260507071904 | 50 | 217 | 7.0 | 13.0 | 0.00 | 0.00 | 0.00 | 75 | 1009.8 |
| 20260507071405 | 50 | 210 | 5.0 | 16.0 | 0.00 | 0.00 | 0.00 | 75 | 1009.8 |
| 20260507070904 | 50 | 209 | 5.0 | 12.0 | 0.00 | 0.00 | 0.00 | 75 | 1009.8 |
| 20260507070405 | 50 | 215 | 1.0 | 12.0 | 0.00 | 0.00 | 0.00 | 74 | 1009.8 |
| 20260507065904 | 50 | 210 | 6.0 | 14.0 | 0.00 | 0.00 | 0.00 | 74 | 1009.8 |
| 20260507065404 | 50 | 210 | 6.0 | 13.0 | 0.00 | 0.00 | 0.00 | 74 | 1009.8 |
| 20260507064904 | 50 | 220 | 6.0 | 12.0 | 0.00 | 0.00 | 0.00 | 74 | 1009.8 |
| 20260507064404 | 50 | 213 | 6.0 | 10.0 | 0.00 | 0.00 | 0.00 | 74 | 1009.8 |
| 20260507063403 | 50 | 207 | 2.0 | 7.0 | 0.00 | 0.00 | 0.00 | 73 | 1009.8 |
| 20260507062403 | 50 | 213 | 2.0 | 16.0 | 0.00 | 0.00 | 0.00 | 72 | 1009.9 |
| 20260507061904 | 50 | 206 | 5.0 | 16.0 | 0.00 | 0.00 | 0.00 | 72 | 1009.8 |
| 20260507061404 | 50 | 207 | 3.0 | 13.0 | 0.00 | 0.00 | 0.00 | 72 | 1009.8 |
| 20260507060903 | 50 | 205 | 5.0 | 12.0 | 0.00 | 0.00 | 0.00 | 71 | 1009.9 |
| 20260507060404 | 50 | 214 | 6.0 | 12.0 | 0.00 | 0.00 | 0.00 | 71 | 1009.9 |
| 20260507055903 | 50 | 207 | 5.0 | 12.0 | 0.00 | 0.00 | 0.00 | 71 | 1009.9 |
| 20260507055404 | 50 | 214 | 7.0 | 13.0 | 0.00 | 0.00 | 0.00 | 70 | 1009.9 |
| 20260507054904 | 50 | 215 | 6.0 | 14.0 | 0.00 | 0.00 | 0.00 | 70 | 1009.9 |
| 20260507054403 | 50 | 206 | 3.0 | 10.0 | 0.00 | 0.00 | 0.00 | 70 | 1009.9 |
| 20260507053904 | 50 | 149 | 5.0 | 13.0 | 0.00 | 0.00 | 0.00 | 70 | 1009.9 |
| 20260507053404 | 50 | 205 | 2.0 | 8.0 | 0.00 | 0.00 | 0.00 | 70 | 1009.9 |
| 20260507052904 | 50 | 205 | 1.0 | 7.0 | 0.00 | 0.00 | 0.00 | 69 | 1009.8 |
| 20260507052404 | 50 | 205 | 2.0 | 10.0 | 0.00 | 0.00 | 0.00 | 69 | 1009.8 |
| 20260507051903 | 50 | 201 | 3.0 | 6.0 | 0.00 | 0.00 | 0.00 | 69 | 1009.8 |
| 20260507051404 | 50 | 201 | 4.0 | 8.0 | 0.00 | 0.00 | 0.00 | 69 | 1009.8 |
| 20260507050904 | 50 | 200 | 3.0 | 6.0 | 0.00 | 0.00 | 0.00 | 69 | 1009.9 |
| 20260507045904 | 50 | 200 | 2.0 | 7.0 | 0.00 | 0.00 | 0.00 | 69 | 1009.9 |
| 20260507045405 | 50 | 200 | 3.0 | 8.0 | 0.00 | 0.00 | 0.00 | 69 | 1009.9 |
| 20260507044904 | 50 | 188 | 3.0 | 7.0 | 0.00 | 0.00 | 0.00 | 69 | 1009.8 |
| 20260507043905 | 50 | 207 | 3.0 | 7.0 | 0.00 | 0.00 | 0.00 | 69 | 1009.9 |
| 20260507043404 | 50 | 207 | 5.0 | 10.0 | 0.00 | 0.00 | 0.00 | 69 | 1009.9 |
| 20260507042403 | 50 | 215 | 5.0 | 12.0 | 0.00 | 0.00 | 0.00 | 69 | 1009.9 |
| 20260507041405 | 50 | 222 | 5.0 | 9.0 | 0.00 | 0.00 | 0.00 | 69 | 1010.0 |
| 20260507040905 | 50 | 208 | 5.0 | 9.0 | 0.00 | 0.00 | 0.00 | 69 | 1010.0 |
| 20260507035903 | 50 | 218 | 3.0 | 8.0 | 0.00 | 0.00 | 0.00 | 68 | 1009.9 |
| 20260507035404 | 50 | 222 | 3.0 | 10.0 | 0.00 | 0.00 | 0.00 | 68 | 1010.0 |
| 20260507034904 | 50 | 198 | 2.0 | 6.0 | 0.00 | 0.00 | 0.00 | 68 | 1009.9 |
| 20260507034405 | 50 | 198 | 3.0 | 10.0 | 0.00 | 0.00 | 0.00 | 67 | 1010.0 |
| 20260507033904 | 49 | 200 | 3.0 | 10.0 | 0.00 | 0.00 | 0.00 | 69 | 1010.1 |
| 20260507033404 | 49 | 208 | 5.0 | 12.0 | 0.00 | 0.00 | 0.00 | 68 | 1010.1 |
| 20260507032905 | 49 | 217 | 5.0 | 9.0 | 0.00 | 0.00 | 0.00 | 69 | 1010.1 |
| 20260507032405 | 49 | 213 | 3.0 | 9.0 | 0.00 | 0.00 | 0.00 | 68 | 1010.2 |
| 20260507030903 | 49 | 208 | 3.0 | 7.0 | 0.00 | 0.00 | 0.00 | 70 | 1010.3 |
| 20260507030404 | 49 | 217 | 3.0 | 10.0 | 0.00 | 0.00 | 0.00 | 70 | 1010.4 |
| 20260507025904 | 48 | 208 | 2.0 | 7.0 | 0.00 | 0.00 | 0.00 | 71 | 1010.5 |
| 20260507024405 | 48 | 207 | 1.0 | 7.0 | 0.00 | 0.00 | 0.00 | 71 | 1010.5 |
| 20260507023906 | 48 | 207 | 2.0 | 7.0 | 0.00 | 0.00 | 0.00 | 72 | 1010.5 |
| 20260507023404 | 48 | 207 | 1.0 | 7.0 | 0.00 | 0.00 | 0.00 | 73 | 1010.6 |
| 20260507022903 | 48 | 207 | 2.0 | 8.0 | 0.00 | 0.00 | 0.00 | 74 | 1010.7 |
| 20260507022404 | 48 | 207 | 1.0 | 3.0 | 0.00 | 0.00 | 0.00 | 76 | 1010.7 |
| 20260507021905 | 48 | 207 | 1.0 | 5.0 | 0.00 | 0.00 | 0.00 | 75 | 1010.7 |
| 20260507021404 | 48 | 207 | 0.0 | 0.0 | 0.00 | 0.00 | 0.00 | 75 | 1010.8 |
| 20260507020905 | 48 | 207 | 0.0 | 3.0 | 0.00 | 0.00 | 0.00 | 75 | 1010.8 |
| 20260507015905 | 48 | 207 | 0.0 | 0.0 | 0.00 | 0.00 | 0.00 | 75 | 1011.0 |
| 20260507015405 | 48 | 207 | 1.0 | 3.0 | 0.00 | 0.00 | 0.00 | 75 | 1010.9 |
| 20260507014904 | 48 | 207 | 2.0 | 6.0 | 0.00 | 0.00 | 0.00 | 75 | 1011.0 |
| 20260507014405 | 48 | 207 | 1.0 | 5.0 | 0.00 | 0.00 | 0.00 | 76 | 1011.0 |
| 20260507013904 | 48 | 207 | 0.0 | 6.0 | 0.00 | 0.00 | 0.00 | 76 | 1011.0 |
| 20260507013405 | 48 | 207 | 2.0 | 5.0 | 0.00 | 0.00 | 0.00 | 75 | 1011.0 |
| 20260507012905 | 48 | 207 | 2.0 | 6.0 | 0.00 | 0.00 | 0.00 | 76 | 1011.1 |
| 20260507012404 | 48 | 207 | 1.0 | 5.0 | 0.00 | 0.00 | 0.00 | 75 | 1011.1 |
| 20260507011904 | 48 | 207 | 1.0 | 6.0 | 0.00 | 0.00 | 0.00 | 75 | 1011.2 |
| 20260507011405 | 48 | 207 | 3.0 | 7.0 | 0.00 | 0.00 | 0.00 | 74 | 1011.2 |
| 20260507010904 | 48 | 207 | 6.0 | 12.0 | 0.00 | 0.00 | 0.00 | 75 | 1011.1 |
| 20260507010404 | 48 | 265 | 1.0 | 9.0 | 0.00 | 0.00 | 0.00 | 75 | 1011.2 |
| 20260507005904 | 48 | 225 | 2.0 | 8.0 | 0.00 | 0.00 | 0.00 | 74 | 1011.2 |
| 20260507005404 | 48 | 221 | 2.0 | 6.0 | 0.00 | 0.00 | 0.00 | 71 | 1011.2 |
| 20260507004404 | 48 | 220 | 1.0 | 5.0 | 0.00 | 0.00 | 0.00 | 72 | 1011.2 |
| 20260507003403 | 47 | 220 | 1.0 | 6.0 | 0.00 | 0.00 | 0.00 | 73 | 1011.3 |
| 20260507002904 | 47 | 221 | 3.0 | 7.0 | 0.00 | 0.00 | 0.00 | 73 | 1011.2 |
| 20260507002404 | 47 | 221 | 1.0 | 2.0 | 0.00 | 0.00 | 0.00 | 75 | 1011.1 |
| 20260507001904 | 47 | 221 | 0.0 | 2.0 | 0.00 | 0.00 | 0.00 | 77 | 1011.4 |
| 20260507001405 | 47 | 221 | 1.0 | 3.0 | 0.00 | 0.00 | 0.00 | 77 | 1011.3 |
| 20260507000904 | 47 | 221 | 0.0 | 1.0 | 0.00 | 0.00 | 0.00 | 77 | 1011.3 |
| 20260507000405 | 47 | 221 | 0.0 | 3.0 | 0.00 | 0.00 | 0.00 | 77 | 1011.4 |
| 20260506235904 | 47 | 221 | 2.0 | 8.0 | 0.00 | 0.00 | 0.00 | 77 | 1011.3 |
| 20260506235404 | 47 | 213 | 2.0 | 5.0 | 0.00 | 0.00 | 0.00 | 76 | 1011.4 |
| 20260506234903 | 47 | 213 | 1.0 | 3.0 | 0.00 | 0.00 | 0.00 | 77 | 1011.5 |
| 20260506234405 | 47 | 213 | 2.0 | 6.0 | 0.00 | 0.00 | 0.00 | 77 | 1011.6 |
| 20260506233404 | 47 | 213 | 3.0 | 7.0 | 0.00 | 0.00 | 0.00 | 78 | 1011.7 |
| 20260506232904 | 47 | 213 | 1.0 | 5.0 | 0.00 | 0.00 | 0.00 | 79 | 1011.7 |
| 20260506231905 | 46 | 213 | 0.0 | 3.0 | 0.00 | 0.00 | 0.00 | 80 | 1011.7 |
| 20260506231404 | 46 | 213 | 0.0 | 0.0 | 0.00 | 0.00 | 0.00 | 80 | 1011.6 |
| 20260506230904 | 46 | 213 | 0.0 | 0.0 | 0.00 | 0.00 | 0.00 | 80 | 1011.6 |
| 20260506230404 | 46 | 213 | 0.0 | 0.0 | 0.00 | 0.00 | 0.00 | 80 | 1011.6 |
| 20260506225903 | 46 | 213 | 0.0 | 0.0 | 0.00 | 0.00 | 0.00 | 80 | 1011.7 |
| 20260506225406 | 46 | 213 | 0.0 | 0.0 | 0.00 | 0.00 | 0.00 | 80 | 1011.7 |
| 20260506224904 | 46 | 213 | 0.0 | 3.0 | 0.00 | 0.00 | 0.00 | 80 | 1011.7 |
| 20260506223405 | 46 | 213 | 0.0 | 0.0 | 0.00 | 0.00 | 0.00 | 81 | 1011.8 |
| 20260506222904 | 46 | 213 | 0.0 | 0.0 | 0.00 | 0.00 | 0.00 | 81 | 1011.8 |
| 20260506222405 | 46 | 213 | 1.0 | 3.0 | 0.00 | 0.00 | 0.00 | 81 | 1011.9 |
| 20260506221904 | 46 | 213 | 0.0 | 0.0 | 0.00 | 0.00 | 0.00 | 80 | 1011.9 |
| 20260506220904 | 47 | 213 | 0.0 | 0.0 | 0.00 | 0.00 | 0.00 | 79 | 1011.9 |
| 20260506215905 | 47 | 213 | 0.0 | 0.0 | 0.00 | 0.00 | 0.00 | 78 | 1011.9 |
| 20260506215405 | 47 | 213 | 0.0 | 0.0 | 0.00 | 0.00 | 0.00 | 78 | 1012.0 |
| 20260506214404 | 47 | 213 | 0.0 | 0.0 | 0.00 | 0.00 | 0.00 | 77 | 1011.9 |
| 20260506213405 | 47 | 213 | 0.0 | 0.0 | 0.00 | 0.00 | 0.00 | 77 | 1011.9 |
| 20260506212904 | 48 | 213 | 0.0 | 1.0 | 0.00 | 0.00 | 0.00 | 77 | 1011.9 |
| 20260506212404 | 48 | 213 | 0.0 | 0.0 | 0.00 | 0.00 | 0.00 | 77 | 1012.0 |
| 20260506211904 | 48 | 213 | 0.0 | 0.0 | 0.00 | 0.00 | 0.00 | 76 | 1012.2 |
| 20260506211404 | 48 | 213 | 0.0 | 0.0 | 0.00 | 0.00 | 0.00 | 76 | 1012.2 |
| 20260506210904 | 48 | 213 | 0.0 | 0.0 | 0.00 | 0.00 | 0.00 | 75 | 1012.2 |
| 20260506210405 | 48 | 213 | 0.0 | 0.0 | 0.00 | 0.00 | 0.00 | 75 | 1012.1 |
| 20260506205904 | 48 | 213 | 0.0 | 0.0 | 0.00 | 0.00 | 0.00 | 74 | 1012.1 |
| 20260506205404 | 48 | 213 | 0.0 | 0.0 | 0.00 | 0.00 | 0.00 | 75 | 1012.1 |
| 20260506204904 | 48 | 213 | 0.0 | 0.0 | 0.00 | 0.00 | 0.00 | 75 | 1012.2 |
| 20260506204405 | 48 | 213 | 1.0 | 3.0 | 0.00 | 0.00 | 0.00 | 75 | 1012.1 |
| 20260506203904 | 48 | 213 | 0.0 | 3.0 | 0.00 | 0.00 | 0.00 | 74 | 1012.1 |
| 20260506203404 | 48 | 213 | 1.0 | 3.0 | 0.00 | 0.00 | 0.00 | 74 | 1012.2 |
| 20260506202904 | 48 | 213 | 1.0 | 3.0 | 0.00 | 0.00 | 0.00 | 74 | 1012.1 |
| 20260506202404 | 48 | 213 | 2.0 | 3.0 | 0.00 | 0.00 | 0.00 | 73 | 1012.2 |
| 20260506201905 | 48 | 213 | 0.0 | 1.0 | 0.00 | 0.00 | 0.00 | 74 | 1012.2 |
| 20260506201404 | 48 | 213 | 1.0 | 3.0 | 0.00 | 0.00 | 0.00 | 74 | 1012.2 |
| 20260506200904 | 49 | 213 | 0.0 | 0.0 | 0.00 | 0.00 | 0.00 | 74 | 1012.1 |
| 20260506200404 | 49 | 213 | 0.0 | 0.0 | 0.00 | 0.00 | 0.00 | 74 | 1012.1 |
| 20260506195905 | 49 | 213 | 0.0 | 0.0 | 0.00 | 0.00 | 0.00 | 74 | 1012.1 |
| 20260506195405 | 49 | 213 | 0.0 | 0.0 | 0.00 | 0.00 | 0.00 | 73 | 1012.2 |
| 20260506194904 | 49 | 213 | 0.0 | 2.0 | 0.00 | 0.00 | 0.00 | 73 | 1012.3 |
| 20260506194404 | 49 | 213 | 0.0 | 1.0 | 0.00 | 0.00 | 0.00 | 73 | 1012.3 |
| 20260506193904 | 49 | 213 | 0.0 | 3.0 | 0.00 | 0.00 | 0.00 | 73 | 1012.3 |
| 20260506193404 | 49 | 213 | 1.0 | 3.0 | 0.00 | 0.00 | 0.00 | 73 | 1012.3 |
| 20260506192904 | 49 | 213 | 0.0 | 6.0 | 0.00 | 0.00 | 0.00 | 73 | 1012.4 |
| 20260506192404 | 49 | 213 | 1.0 | 3.0 | 0.00 | 0.00 | 0.00 | 74 | 1012.4 |
| 20260506191904 | 50 | 213 | 0.0 | 3.0 | 0.00 | 0.00 | 0.00 | 73 | 1012.5 |
| 20260506191404 | 50 | 213 | 1.0 | 3.0 | 0.00 | 0.00 | 0.00 | 73 | 1012.5 |
| 20260506190904 | 50 | 213 | 1.0 | 3.0 | 0.00 | 0.00 | 0.00 | 73 | 1012.6 |
| 20260506190404 | 50 | 213 | 1.0 | 3.0 | 0.00 | 0.00 | 0.00 | 73 | 1012.6 |
| 20260506185405 | 50 | 213 | 0.0 | 3.0 | 0.00 | 0.00 | 0.00 | 74 | 1012.6 |
| 20260506184904 | 50 | 213 | 0.0 | 0.0 | 0.00 | 0.00 | 0.00 | 73 | 1012.6 |
| 20260506183905 | 50 | 213 | 2.0 | 5.0 | 0.00 | 0.00 | 0.00 | 71 | 1012.5 |
| 20260506183404 | 50 | 213 | 1.0 | 3.0 | 0.00 | 0.00 | 0.00 | 70 | 1012.5 |
| 20260506182904 | 51 | 213 | 1.0 | 5.0 | 0.00 | 0.00 | 0.00 | 68 | 1012.5 |
| 20260506182404 | 51 | 213 | 2.0 | 6.0 | 0.00 | 0.00 | 0.00 | 67 | 1012.4 |